This is the latest recevied weather packets stored in our database for station/object N0NB. If no packets are shown the sender has not sent any weather packets the latest 10 day(s).
| Time | Temp. | Humidity | Pressure | Rain* | Wind** | Luminosity | Snow |
|---|---|---|---|---|---|---|---|
| 1778157617 | 8.33° C | 80% | 1013.3 hPa | 0 mm | - | 126 W/m² | - |
| 1778157017 | 7.78° C | 81% | 1013.3 hPa | 0 mm | - | 89 W/m² | - |
| 1778156417 | 7.22° C | 82% | 1013.2 hPa | 0 mm | - | 72 W/m² | - |
| 1778155817 | 6.67° C | 84% | 1013.3 hPa | 0 mm | - | 56 W/m² | - |
| 1778155217 | 6.67° C | 85% | 1013.3 hPa | 0 mm | - | 35 W/m² | - |
| 1778154617 | 6.67° C | 85% | 1013.3 hPa | 0 mm | - | 19 W/m² | - |
| 1778154017 | 6.67° C | 85% | 1013.5 hPa | 0 mm | - | 11 W/m² | - |
| 1778153417 | 6.67° C | 85% | 1013.5 hPa | 0 mm | - | 7 W/m² | - |
| 1778152817 | 6.67° C | 85% | 1013.6 hPa | 0 mm | - | 0 W/m² | - |
| 1778152217 | 6.67° C | 85% | 1013.5 hPa | 0 mm | - | 0 W/m² | - |
| 1778151617 | 6.67° C | 85% | 1013.6 hPa | 0 mm | - | 0 W/m² | - |
| 1778151017 | 6.67° C | 85% | 1013.6 hPa | 0 mm | - | 0 W/m² | - |
| 1778150417 | 6.67° C | 85% | 1013.5 hPa | 0 mm | - | 0 W/m² | - |
| 1778149817 | 6.67° C | 85% | 1013.5 hPa | 0 mm | - | 0 W/m² | - |
| 1778149217 | 6.67° C | 85% | 1013.7 hPa | 0 mm | - | 0 W/m² | - |
| 1778148617 | 6.67° C | 85% | 1014 hPa | 0 mm | - | 0 W/m² | - |
| 1778148017 | 6.67° C | 86% | 1014 hPa | 0 mm | - | 0 W/m² | - |
| 1778147417 | 6.67° C | 86% | 1014.1 hPa | 0 mm | - | 0 W/m² | - |
| 1778146817 | 6.67° C | 86% | 1014.2 hPa | 0 mm | - | 0 W/m² | - |
| 1778146217 | 6.11° C | 86% | 1014.2 hPa | 0 mm | - | 0 W/m² | - |
| 1778145617 | 6.67° C | 86% | 1014.4 hPa | 0 mm | - | 0 W/m² | - |
| 1778145017 | 6.67° C | 85% | 1014.3 hPa | 0 mm | - | 0 W/m² | - |
| 1778144417 | 6.67° C | 85% | 1014.4 hPa | 0 mm | - | 0 W/m² | - |
| 1778143817 | 6.67° C | 83% | 1014.3 hPa | 0 mm | - | 0 W/m² | - |
| 1778143217 | 6.67° C | 82% | 1014.4 hPa | 0 mm | - | 0 W/m² | - |
* Rain latest hour (hover to see other rain measurements)
** Current wind speed in m/s (hover to see current wind gust speed)